Вернуться в каталог

SL-16 DEB

АктивенLEO
NORAD 22578·DEBRIS·🇷🇺 Russia

Запущен Mar 26, 1993 с Baikonur Cosmodrome

Loading…

Ближайшие Пролёты (ближайшие 24 часа)

TLE

СвежийSource: Space-Track

Эпоха: Sep 14, 2026, 22:08 UTC

1 22578U 93016F   26257.92260264  .00000291  00000-0  78408-4 0  9999
2 22578  71.0631 305.6089 0104470  78.1420  94.3988 14.53279487768342

Отслеживайте SL-16 DEB в реальном времени с AllMySat

Download on the App Store